Weather reports worldwide

Advertisment
Dax, France (7603): temperature & dewpoint: 20.09.2018 17:00:00 - 26.09.2018 17:00:00 (CEST)Dax, France (7603): temperature 5cm: 20.09.2018 17:00:00 - 26.09.2018 17:00:00 (CEST)Dax, France (7603): temperature -100cm: 20.09.2018 17:00:00 - 26.09.2018 17:00:00 (CEST)Dax, France (7603): wind speed & gusts: 20.09.2018 17:00:00 - 26.09.2018 17:00:00 (CEST)Dax, France (7603): wind direction: 20.09.2018 17:00:00 - 26.09.2018 17:00:00 (CEST)Dax, France (7603): reduced air pressure: 20.09.2018 17:00:00 - 26.09.2018 17:00:00 (CEST)Dax, France (7603): visibility: 20.09.2018 17:00:00 - 26.09.2018 17:00:00 (CEST)Dax, France (7603): sunshine duration: 20.09.2018 17:00:00 - 26.09.2018 17:00:00 (CEST)Dax, France (7603): precipitation: 20.09.2018 17:00:00 - 26.09.2018 17:00:00 (CEST)
Date & Time tt [°C] td [°C] tt 5cm [°C] tt -100cm [°C] ff [km/h] ff [kn] fx [km/h] fx [kn] dd ppp [hPa] vv [km] sd [min] rr [mm]
26.09.2018 17:00:00 28,9 11,0 31,2 21,8 18 10 30 16 E 1025,5 10 60 0,0
26.09.2018 16:00:00 28,3 11,4 30,9 21,8 14 8 28 15 E 1025,8 10 60 0,0
26.09.2018 15:00:00 28,0 12,4 29,5 21,8 13 7 31 17 E 1026,3 10 60 0,0
26.09.2018 14:00:00 25,8 12,6 27,2 21,8 14 7 25 13 ESE 1027,0 10 60 0,0
26.09.2018 13:00:00 23,6 12,9 24,0 21,9 12 7 23 12 ESE 1027,5 10 60 0,0
26.09.2018 12:00:00 20,8 12,2 20,5 21,8 12 6 18 10 E 1028,0 10 60 0,0
26.09.2018 11:00:00 17,5 11,7 16,3 21,8 9 5 18 10 E 1028,1 10 60 0,0
26.09.2018 10:00:00 12,9 10,3 11,7 21,9 8 4 13 7 E 1028,2 11 60 0,0
26.09.2018 09:00:00 9,8 8,4 8,8 21,9 9 5 13 7 ENE 1027,8 9 43 0,0
26.09.2018 08:00:00 9,1 8,3 7,9 21,9 8 4 11 6 ENE 1027,6 10 0 0,0
26.09.2018 07:00:00 8,7 7,9 7,5 21,9 6 3 10 6 E 1027,4 7 0 0,0
26.09.2018 06:00:00 8,6 7,5 7,6 21,9 5 3 9 5 E 1027,4 15 0 0,0
26.09.2018 05:00:00 9,0 7,6 8,0 21,9 2 1 6 4 E 1027,5 17 0 0,0
26.09.2018 04:00:00 9,4 8,3 8,0 21,9 4 2 6 4 NE 1027,7 - 0 0,0
26.09.2018 03:00:00 9,3 8,2 8,2 21,9 0 0 4 2 N 1027,9 22 0 0,0
26.09.2018 02:00:00 9,6 8,0 8,7 21,9 0 0 5 3 N 1028,1 25 0 0,0
26.09.2018 01:00:00 10,1 8,2 9,1 21,9 0 0 4 2 N 1028,1 24 0 0,0
26.09.2018 00:00:00 10,4 8,8 9,4 21,9 4 2 5 3 - 1028,1 - 0 0,0
25.09.2018 23:00:00 11,4 9,0 10,3 21,9 0 0 3 2 N 1028,1 26 0 0,0
25.09.2018 22:00:00 13,2 8,1 12,2 22,0 0 0 7 4 N 1027,9 33 0 0,0
25.09.2018 21:00:00 14,5 8,0 13,6 21,9 4 2 10 6 WNW 1027,6 - 0 0,0
25.09.2018 20:00:00 16,2 7,7 15,7 22,0 6 4 19 10 WNW 1027,1 27 30 0,0
25.09.2018 19:00:00 18,9 7,6 21,0 22,0 10 5 19 10 NW 1026,9 28 60 0,0
25.09.2018 18:00:00 21,5 4,5 24,6 22,0 5 3 13 7 WNW 1026,7 31 60 0,0
25.09.2018 17:00:00 21,4 5,7 24,6 22,0 6 3 13 7 ESE 1027,0 30 60 0,0
25.09.2018 16:00:00 21,0 6,1 23,9 22,0 5 3 14 8 SSW 1027,0 30 60 0,0
25.09.2018 15:00:00 19,9 6,2 23,2 21,9 7 4 14 8 NNE 1027,7 30 60 0,0
25.09.2018 14:00:00 18,9 6,4 22,3 22,0 6 3 13 7 N 1028,2 30 60 0,0
25.09.2018 13:00:00 17,7 7,4 19,7 22,0 4 2 11 6 NE 1028,8 30 60 0,0
25.09.2018 12:00:00 15,7 7,2 18,2 22,0 5 3 10 5 WNW 1029,1 30 60 0,0
25.09.2018 11:00:00 13,7 6,8 14,7 21,9 0 0 10 5 N 1029,1 30 60 0,0
25.09.2018 10:00:00 11,2 5,9 12,1 22,0 8 4 11 6 E 1029,0 30 60 0,0
25.09.2018 09:00:00 9,5 5,9 7,1 22,0 6 4 11 6 NE 1028,7 30 45 0,0
25.09.2018 08:00:00 7,7 5,7 5,8 22,0 5 3 8 5 NE 1028,8 15 0 0,0
25.09.2018 07:00:00 6,8 5,4 5,7 22,0 0 0 4 2 N 1028,8 15 0 0,0
25.09.2018 06:00:00 8,2 5,7 7,3 22,0 0 0 7 4 N 1028,9 16 0 0,0
25.09.2018 05:00:00 8,9 6,2 7,0 22,0 4 2 9 5 ENE 1029,1 45 0 0,0
25.09.2018 04:00:00 10,8 6,0 9,9 22,0 6 3 13 7 NE 1029,3 43 0 0,0
25.09.2018 03:00:00 10,8 6,3 8,7 22,0 4 2 10 6 NE 1029,7 46 0 0,0
25.09.2018 02:00:00 11,3 6,2 9,6 22,0 5 3 13 7 NE 1029,6 46 0 0,0
25.09.2018 01:00:00 12,9 6,2 12,2 22,0 7 4 16 9 NE 1029,9 45 0 0,0
25.09.2018 00:00:00 13,7 6,5 12,0 22,0 8 4 16 9 NNE 1029,9 41 0 0,0
24.09.2018 23:00:00 14,1 7,2 12,5 22,0 6 3 14 7 N 1030,0 34 0 0,0
24.09.2018 22:00:00 14,5 6,8 13,1 22,0 2 1 9 5 NNW 1030,0 45 0 0,0
24.09.2018 21:00:00 17,2 5,8 16,2 22,0 6 3 18 10 NE 1029,4 47 0 0,0
24.09.2018 20:00:00 18,9 5,3 18,2 22,0 11 6 21 11 NNE 1029,0 45 31 0,0
24.09.2018 19:00:00 20,2 7,2 22,8 22,0 8 5 17 9 NNW 1028,7 36 60 0,0
24.09.2018 18:00:00 21,6 4,6 24,8 22,0 6 4 19 11 NNW 1028,5 32 60 0,0
24.09.2018 17:00:00 21,7 6,0 25,6 22,0 6 3 20 11 NW 1028,9 34 60 0,0
24.09.2018 16:00:00 21,0 6,9 25,3 22,0 6 3 18 10 NNE 1029,3 15 60 0,0
24.09.2018 15:00:00 20,8 8,8 21,0 22,0 5 3 17 9 WNW 1029,7 15 48 0,0
24.09.2018 14:00:00 19,3 11,3 19,2 22,0 6 3 19 10 WNW 1030,4 15 31 0,0
24.09.2018 13:00:00 18,3 11,8 17,7 21,9 5 3 15 8 NNW 1030,8 27 27 0,0
24.09.2018 12:00:00 15,9 10,9 16,8 22,0 8 4 19 11 NNW 1031,4 10 12 0,0
24.09.2018 11:00:00 15,3 11,7 15,8 22,0 9 5 21 12 N 1031,3 10 1 0,0
24.09.2018 10:00:00 14,8 11,9 15,1 22,0 9 5 17 9 N 1030,6 34 0 0,0
24.09.2018 09:00:00 14,6 12,1 13,8 22,0 9 5 22 12 N 1029,9 8 3 0,0
24.09.2018 08:00:00 14,7 12,4 13,8 22,0 13 7 22 12 N 1029,2 7 0 0,0
24.09.2018 07:00:00 15,3 13,3 14,6 22,0 9 5 27 14 N 1028,2 7 0 0,0
24.09.2018 06:00:00 16,1 14,6 15,6 22,0 10 5 31 17 N 1027,5 39 0 0,0
24.09.2018 05:00:00 17,7 17,1 17,0 22,0 6 3 11 6 WNW 1026,7 9 0 0,0
24.09.2018 04:00:00 18,2 17,0 17,4 22,0 4 2 13 7 NW 1026,7 17 0 0,0
24.09.2018 03:00:00 18,7 17,5 18,2 22,0 6 4 24 13 NNW 1026,7 31 0 0,0
24.09.2018 02:00:00 19,2 18,5 18,9 22,0 10 5 27 14 NNW 1026,4 6 0 0,2
24.09.2018 01:00:00 20,2 19,7 20,0 22,0 8 4 16 9 W 1026,0 9 0 0,2
24.09.2018 00:00:00 20,3 19,8 19,8 22,0 10 6 19 11 WSW 1026,0 2,6 0 0,8
23.09.2018 23:00:00 20,0 19,5 19,7 22,0 11 6 20 11 SW 1026,0 3,4 0 0,2
23.09.2018 22:00:00 20,0 19,3 19,6 22,0 11 6 16 9 SW 1026,1 3,9 0 0,0
23.09.2018 21:00:00 20,4 19,1 19,6 22,0 6 4 26 14 W 1026,1 2,2 0 0,0
23.09.2018 20:00:00 22,0 18,2 21,9 22,0 11 6 25 14 W 1025,4 18 0 0,0
23.09.2018 19:00:00 22,7 17,8 22,9 22,0 10 5 29 15 W 1024,8 19 0 0,0
23.09.2018 18:00:00 23,3 17,5 23,8 22,0 17 9 32 18 W 1024,3 24 40 0,0
23.09.2018 17:00:00 26,0 17,9 28,7 22,0 16 9 35 19 WNW 1023,5 28 60 0,0
23.09.2018 16:00:00 27,8 17,0 31,4 22,0 15 8 29 16 NW 1023,0 30 60 0,0
23.09.2018 15:00:00 29,2 18,6 31,7 22,0 7 4 18 10 WSW 1022,3 31 60 0,0
23.09.2018 14:00:00 26,8 18,4 29,4 22,0 4 2 19 11 N 1023,2 29 60 0,0
23.09.2018 13:00:00 25,8 18,5 28,0 22,0 4 2 12 7 SSE 1023,5 24 60 0,0
23.09.2018 12:00:00 23,7 18,8 23,5 22,0 4 2 16 9 SSW 1024,1 20 31 0,0
23.09.2018 11:00:00 21,9 18,9 21,3 22,0 5 3 12 7 SW 1024,2 15 15 0,0
23.09.2018 10:00:00 19,1 18,4 18,4 22,0 6 3 9 5 SSE 1024,0 3,8 0 0,0
23.09.2018 09:00:00 17,7 17,4 16,9 22,0 0 0 5 3 N 1023,7 0,7 0 0,0
23.09.2018 08:00:00 17,0 16,5 16,5 22,0 2 1 5 3 ESE 1023,4 2,6 0 0,0
23.09.2018 07:00:00 17,3 16,7 16,7 22,1 0 0 3 2 N 1023,3 0,1 0 0,0
23.09.2018 06:00:00 16,8 15,8 15,7 22,0 0 0 6 3 N 1023,5 15 0 0,0
23.09.2018 05:00:00 16,5 15,4 15,5 22,0 2 1 6 4 S 1023,7 16 0 0,0
23.09.2018 04:00:00 16,5 15,5 15,4 22,0 2 1 7 4 SSE 1024,0 16 0 0,0
23.09.2018 03:00:00 17,1 15,4 16,0 22,0 0 0 6 4 N 1024,7 23 0 0,0
23.09.2018 02:00:00 17,2 15,9 15,9 22,0 3 2 7 4 SSW 1024,9 25 0 0,0
23.09.2018 01:00:00 17,6 15,2 16,3 22,0 2 1 9 5 S 1024,8 27 0 0,0
23.09.2018 00:00:00 19,5 16,7 17,5 22,0 4 2 9 5 W 1024,7 33 0 0,0
22.09.2018 23:00:00 20,2 15,6 18,3 22,0 6 3 11 6 W 1024,5 38 0 0,0
22.09.2018 22:00:00 20,1 15,5 18,7 22,0 3 2 8 5 SSW 1024,2 33 0 0,0
22.09.2018 21:00:00 22,5 14,6 21,9 22,0 5 3 10 5 W 1023,4 39 0 0,0
22.09.2018 20:00:00 24,3 14,7 23,6 22,1 5 3 23 12 W 1023,1 42 33 0,0
22.09.2018 19:00:00 27,0 14,4 27,6 22,0 10 6 21 11 W 1022,9 44 49 0,0
22.09.2018 18:00:00 28,6 14,4 30,6 22,1 13 7 21 11 WSW 1022,6 37 60 0,0
22.09.2018 17:00:00 29,5 16,0 31,6 22,0 9 5 22 12 WSW 1022,5 32 60 0,0
22.09.2018 16:00:00 28,5 16,1 31,5 22,0 5 3 14 7 WNW 1022,7 31 60 0,0
22.09.2018 15:00:00 27,4 16,4 30,5 22,0 7 4 14 8 WSW 1022,9 31 60 0,0
22.09.2018 14:00:00 25,8 16,4 28,3 22,0 5 3 12 6 ENE 1023,3 20 60 0,0
22.09.2018 13:00:00 24,3 16,6 25,6 22,0 4 2 13 7 SE 1023,5 20 60 0,0
22.09.2018 12:00:00 21,6 16,8 19,9 22,0 4 2 13 7 E 1023,9 19 52 0,0
22.09.2018 11:00:00 17,8 16,1 17,8 22,0 5 3 13 7 ESE 1024,1 8 0 0,0
22.09.2018 10:00:00 16,4 15,8 15,9 22,0 6 3 10 5 ENE 1024,0 3,0 0 0,0
22.09.2018 09:00:00 15,7 15,2 15,2 22,0 6 3 16 9 E 1023,8 0,7 0 0,0
22.09.2018 08:00:00 15,8 14,0 15,8 22,0 8 4 16 9 NE 1023,7 8 0 0,0
22.09.2018 07:00:00 16,2 14,2 16,1 22,0 9 5 17 9 NE 1023,1 10 0 0,0
22.09.2018 06:00:00 16,4 15,3 15,4 22,0 4 2 10 6 NNE 1023,4 10 0 0,0
22.09.2018 05:00:00 16,6 15,0 16,5 22,0 7 4 13 7 ESE 1023,5 10 0 0,0
22.09.2018 04:00:00 17,2 15,2 17,0 22,1 9 5 15 8 NE 1024,2 3,3 0 0,0
22.09.2018 03:00:00 17,4 15,2 17,1 22,0 10 6 15 8 NE 1024,4 11 0 0,0
22.09.2018 02:00:00 18,0 16,0 17,1 22,0 6 4 11 6 NE 1024,8 11 0 0,0
22.09.2018 01:00:00 18,0 15,8 17,2 22,0 4 2 7 4 E 1024,7 13 0 0,0
22.09.2018 00:00:00 18,7 16,1 18,7 22,0 6 3 11 6 N 1025,0 14 0 0,0
21.09.2018 23:00:00 19,0 16,0 18,6 22,0 7 4 10 5 ENE 1024,4 22 0 0,0
21.09.2018 22:00:00 19,3 16,3 19,1 22,0 6 3 12 6 NNE 1024,6 30 0 0,0
21.09.2018 21:00:00 19,2 16,8 19,1 22,0 4 2 9 5 WNW 1023,7 41 0 0,0
21.09.2018 20:00:00 19,6 16,6 19,4 22,0 4 2 15 8 WNW 1023,2 10 0 0,0
21.09.2018 19:00:00 20,0 17,2 19,8 22,0 8 4 18 10 NNW 1022,8 9 0 0,0
21.09.2018 18:00:00 20,6 17,0 19,6 22,0 14 8 31 17 NNW 1022,0 32 0 0,0
21.09.2018 17:00:00 22,7 16,7 22,7 22,0 16 9 34 18 W 1021,7 21 0 0,0
21.09.2018 16:00:00 23,6 15,4 24,4 22,0 18 10 32 18 W 1021,1 23 0 0,0
21.09.2018 15:00:00 25,0 16,2 26,7 22,0 14 8 30 16 W 1020,6 10 5 0,0
21.09.2018 14:00:00 25,4 16,5 26,1 22,0 16 9 30 16 WSW 1020,9 10 47 0,0
21.09.2018 13:00:00 24,4 15,9 25,4 22,0 14 8 25 14 W 1021,0 10 27 0,0
21.09.2018 12:00:00 23,1 18,6 23,3 22,0 9 5 18 10 W 1021,1 7 0 0,0
21.09.2018 11:00:00 21,6 19,2 20,8 22,0 9 5 16 9 WSW 1020,7 4,5 1 0,0
21.09.2018 10:00:00 19,1 18,4 18,8 22,0 6 3 11 6 S 1019,9 4,0 0 0,0
21.09.2018 09:00:00 18,2 17,6 16,5 22,0 4 2 11 6 S 1019,3 5 2 0,0
21.09.2018 08:00:00 17,5 17,0 16,1 22,0 4 2 9 5 S 1018,3 3,0 0 0,2
21.09.2018 07:00:00 17,1 16,6 16,2 22,0 4 2 10 6 S 1017,7 2,8 0 0,0
21.09.2018 06:00:00 17,7 17,1 17,0 22,0 0 0 9 5 N 1017,6 5 0 0,0
21.09.2018 05:00:00 17,8 17,0 17,1 22,0 3 1 7 4 S 1017,5 6 0 0,0
21.09.2018 04:00:00 17,8 17,0 17,2 22,0 4 2 7 4 SSE 1017,3 6 0 0,0
21.09.2018 03:00:00 18,6 17,8 17,4 22,0 3 1 5 3 WSW 1017,6 7 0 0,0
21.09.2018 02:00:00 18,8 17,6 17,8 22,0 3 2 7 4 S 1017,5 7 0 0,0
21.09.2018 01:00:00 19,1 17,8 18,3 22,0 4 2 10 5 SSW 1017,6 7 0 0,0
21.09.2018 00:00:00 19,5 18,0 19,3 22,0 6 4 18 10 W 1017,7 8 0 0,0
20.09.2018 23:00:00 20,0 17,0 19,8 22,0 10 5 16 9 WSW 1017,4 11 0 0,0
20.09.2018 22:00:00 20,8 17,0 20,5 22,0 9 5 18 10 W 1017,1 13 0 0,0
20.09.2018 21:00:00 22,2 16,9 21,9 22,0 8 4 16 9 WSW 1016,0 15 0 0,0
20.09.2018 20:00:00 24,9 17,4 24,4 22,0 9 5 19 10 WNW 1015,4 14 28 0,0
20.09.2018 19:00:00 30,4 18,5 31,6 22,0 5 3 19 10 WNW 1015,1 23 60 0,0
20.09.2018 18:00:00 31,1 17,4 33,7 22,0 5 3 12 7 SE 1015,1 22 60 0,0
20.09.2018 17:00:00 31,4 17,7 34,2 22,0 4 2 14 8 SSW 1015,8 15 60 0,0

tt = temperature
td = dewpoint
tt 5cm = temperature 5cm
tt -100cm = temperature -100cm
ff = wind speed
fx = gusts
dd = wind direction
ppp = reduced air pressure
vv = visibility
sd = sunshine duration
rr = precipitation

Next stations